+ View the NASA Portal
+ Center for Near-Earth Object Studies
IMPORTANT:
The SSD Announcement email list is now available. Major changes are coming in the near future, including possible hostname and/or URL changes. To be notified of such changes, subscribe to this email list.
Please visit
this page
for more details.
Don't show this message again
JPL Small-Body Database Browser
Search:
[
help
]
214935 (2007 VJ167)
Classification:
Main-belt Asteroid
SPK-ID:
2214935
[
Ephemeris
|
Orbit Diagram
|
Orbital Elements
|
Mission Design
|
Physical Parameters
|
Discovery Circumstances
]
[ show orbit diagram ]
Orbital Elements at Epoch 2458600.5 (2019-Apr-27.0) TDB
Reference:
JPL 13
(heliocentric ecliptic J2000)
Element
Value
Uncertainty (1-sigma)
Units
e
.1670698106457032
7.2731e-08
a
2.570660425568981
2.0398e-08
au
q
2.141180675034769
1.987e-07
au
i
4.056736493558091
8.0387e-06
deg
node
56.15980124293598
9.3525e-05
deg
peri
18.8142244693099
0.00010208
deg
M
270.0193689472278
3.9837e-05
deg
t
p
2458976.780773770781
(2020-May-07.28077377)
0.00016972
TDB
period
1505.447083139877
4.12
1.7919e-05
4.906e-08
d
yr
n
.239131620122546
2.8463e-09
deg/d
Q
3.000140176103193
2.3806e-08
au
Orbit Determination Parameters
# obs. used (total)
357
data-arc span
10139 days (27.76 yr)
first obs. used
1992-02-24
last obs. used
2019-11-28
planetary ephem.
DE431
SB-pert. ephem.
SB431-N16
condition code
0
norm. resid. RMS
.52118
source
ORB
producer
Otto Matic
solution date
2019-Dec-04 16:59:08
Additional Information
Earth MOID
= 1.15649 au
Jupiter MOID
= 2.26809 au
T_jup
= 3.407
[ show covariance matrix ]
[
Ephemeris
|
Orbit Diagram
|
Orbital Elements
|
Mission Design
|
Physical Parameters
|
Discovery Circumstances
]
Physical Parameter Table
Parameter
Symbol
Value
Units
Sigma
Reference
Notes
absolute magnitude
H
16.7
n/a
MPO360124
214935 (2007 VJ167)
Discovered 2007-Nov-05 by Mt. Lemmon Survey at Mount Lemmon
Reference:
20090509/Numbers.arc
Last Updated:
2009-05-11
Alternate Designations
2007 VJ167
= 2005 GZ92
[
Ephemeris
|
Orbit Diagram
|
Orbital Elements
|
Mission Design
|
Physical Parameters
|
Discovery Circumstances
]
2019-Dec-13 08:35 UT
(server date/time)
Site Manager:
Ryan S. Park
Webmaster
:
Alan B. Chamberlin